Location: Brunsbüttel
(52.3892°N, 10.6138°E)
Time: 00:20:23
(UTC+00:00)

Cosmos 2084 Rocket - Pass Details

Date: 19 May 2025
Orbit: 543 x 578 km, 62.8° (Epoch: 22 June)

Event Time Altitude Azimuth Distance (km) Brightness Sun altitude
Rises 21:55:14 0° 236° (SW) 2,781 6.8 -15.6°
Reaches altitude 10° 21:57:29 10° 239° (WSW) 1,881 5.9 -15.7°
Maximum altitude 22:01:42 64° 321° (NW) 636 3.8 -15.9°
Drops below altitude 10° 22:05:54 10° 44° (NE) 1,872 6.4 -16.1°
Sets 22:08:09 0° 48° (NE) 2,765 7.3 -16.2°
